Regional Weather Roundup
Issued by NWS

Home | Current Version | Previous Version | Graphics & Text | Print | Product List | Glossary On
Versions: 1 2 3 4 5 6 7 8 9 10 11 12 13 14 15 16 17 18 19 20 21 22 23 24 25 26 27 28 29 30 31 32 33 34 35 36 37 38 39 40 41 42 43 44 45 46 47 48 49 50
847
ASUS43 KMKX 171200
RWRWI

WISCONSIN REGIONAL WEATHER ROUNDUP
NATIONAL WEATHER SERVICE MILWAUKEE/SULLIVAN WI
600 AM CST TUE JAN 17 2017

NOTE: "FAIR" INDICATES FEW OR NO CLOUDS BELOW 12,000 FEET WITH NO
SIGNIFICANT WEATHER AND/OR OBSTRUCTIONS TO VISIBILITY.

WIZ001-002-006>008-014>016-023>028-171300-
NORTHWEST WISCONSIN

CITY           SKY/WX    TMP DP  RH WIND       PRES   REMARKS
SUPERIOR ARPT  CLOUDY    21  18  88 CALM      29.97S
ASHLAND        NOT AVBL
HAYWARD        CLOUDY    28  21  75 NE5       29.92F WCI  23
6HR MIN TEMP:  27; 6HR MAX TEMP:  30;

SIREN          CLOUDY    29  23  76 CALM      29.93F
CUMBERLAND     MIX PCPN  32  30  93 N6        29.91S WCI  26
RICE LAKE      MIX PCPN  33  32  96 N6        29.92S WCI  28
CHETEK         MIX PCPN  32  32 100 CALM      29.90F
LADYSMITH      MIX PCPN  34  33  96 N7        29.91S WCI  28
EAU CLAIRE     MIX PCPN  33  32  96 N6        29.88S FOG     WCI  28
MENOMONIE      LGT RAIN  33  33 100 NW5       29.90S WCI  28
NEW RICHMOND   LGT RAIN  32  32 100 N6        29.92S WCI  26
OSCEOLA        MIX PCPN  31  31 100 N3        29.96S
$$

WIZ003>005-009-010-017-018-171300-
NORTH CENTRAL WISCONSIN

CITY           SKY/WX    TMP DP  RH WIND       PRES   REMARKS
MANITOWISH WTR FLURRIES  28  25  86 NE5       29.89F WCI  23
ARBOR VITAE    FLURRIES  32  29  89 NE5       29.89F WCI  27
WOODRUFF       FLURRIES  32  29  89 NE5       29.89F WCI  27
RHINELANDER    CLOUDY    30  29  96 NE7       29.88S WCI  23
6HR MIN TEMP:  28; 6HR MAX TEMP:  31; 6HR PCP:  0.09;

EAGLE RIVER    FLURRIES  28  23  81 NE3       29.88F
LAND O LAKES   FLURRIES  28  24  86 CALM      29.91F
PHILLIPS       FLURRIES  32  32 100 N7        29.89S WCI  25
6HR MIN TEMP:  28; 6HR MAX TEMP:  32; 6HR PCP:  0.05;

TOMAHAWK       LGT RAIN  31  29  94 CALM      29.88S
MEDFORD        MIX PCPN  32  32  98 NE5       29.85S WCI  28
MERRILL        MIX PCPN  32  32 100 NE6         N/A  WCI  27
6HR MIN TEMP:  31; 6HR MAX TEMP:  32; 6HR PCP:  0.15;

$$

WIZ029-030-035-036-043>047-171300-
CENTRAL WISCONSIN

CITY           SKY/WX    TMP DP  RH WIND       PRES   REMARKS
WAUSAU         CLOUDY    33  32  96 N3        29.84S FOG
6HR MIN TEMP:  32; 6HR MAX TEMP:  33; 6HR PCP:  0.03;

MOSINEE        FRZ DRZL  32  32 100 NE5       29.85F WCI  27
MARSHFIELD     CLOUDY    33  31  92 NE6       29.83S FOG     WCI  28
6HR MIN TEMP:  33; 6HR MAX TEMP:  33;

STEVENS POINT  MIX PCPN  31  31 100 N6        29.85S WCI  25
WAUPACA        CLOUDY    34  33  94 CALM      29.84F FOG
WAUTOMA        MIX PCPN  33 N/A N/A NE7       29.84R WCI  27
                                      6HR PCP:  0.07;

WISC RAPIDS      N/A     33  33 100 NE3       29.85S
6HR MIN TEMP:  33; 6HR MAX TEMP:  34; 6HR PCP:  0.01;

CAMP DOUGLAS   NOT AVBL
$$

WIZ011>013-019>022-031-037>040-048>050-171300-
NORTHEAST WISCONSIN

CITY           SKY/WX    TMP DP  RH WIND       PRES   REMARKS
ANTIGO         MIX PCPN  32  31  99 NE10      29.85S WCI  23
SHAWANO        DRIZZLE   34  32  93 NE5       29.86S WCI  30
OCONTO         CLOUDY    32  32  98 NE8       29.85F WCI  25
STURGEON BAY   MIX PCPN  35  34  96 NE8       29.84F FOG     WCI  29
6HR MIN TEMP:  33; 6HR MAX TEMP:  35; 6HR PCP:  0.18;

GREEN BAY      CLOUDY    35  34  96 NE17      29.83F FOG     WCI  25
6HR MIN TEMP:  34; 6HR MAX TEMP:  35; 6HR PCP:  0.10;

MANITOWOC      LGT RAIN  36  36 100 NE6       29.81F FOG     WCI  31
APPLETON       DRIZZLE   32  32 100 NE9       29.81S FOG     WCI  24
CLINTONVILLE   MIX PCPN  32  32 100 N7        29.85S WCI  26
OSHKOSH        CLOUDY    33  32  96 N10       29.82R FOG     WCI  25
6HR MIN TEMP:  33; 6HR MAX TEMP:  34; 6HR PCP:  0.03;

$$

WIZ032>034-041-042-053>061-171300-
SOUTHWEST WISCONSIN

CITY           SKY/WX    TMP DP  RH WIND       PRES   REMARKS
LA CROSSE      CLOUDY    36  33  89 N3        29.87R FOG
6HR MIN TEMP:  36; 6HR MAX TEMP:  36; 6HR PCP: TRACE;

SPARTA         CLOUDY    32  32 100 N3        29.86S FOG
VIROQUA        CLOUDY    32  32 100 CALM      29.83R VSB 3/4
6HR MIN TEMP:  32; 6HR MAX TEMP:  32;

BOSCOBEL       FOG       34  33  96 W3        29.85S VSB 1
6HR MIN TEMP:  34; 6HR MAX TEMP:  34;

PRAIRIE DU CHI FOG       33  32  96 W3        29.86S VSB 3/4
PLATTEVILLE    CLOUDY    33  33 100 N6        29.82S VSB 1/2 WCI  28
$$

WIZ056-057-062-063-064-067-068-171300-
SOUTH CENTRAL WISCONSIN

CITY           SKY/WX    TMP DP  RH WIND       PRES   REMARKS
REEDSBURG      CLOUDY    32  32 100 NW3       29.84R FOG
BARABOO/DELLS  FOG       32  32 100 N5        29.82R VSB 1   WCI  27
LONE ROCK      NOT AVBL
MINERAL POINT  FOG       34  34 100 NW5       29.82R VSB 1/4 WCI  30
MADISON        CLOUDY    33  33 100 N6        29.82R FOG     WCI  28
6HR MIN TEMP:  33; 6HR MAX TEMP:  34; 6HR PCP:  0.06;

MIDDLETON      CLOUDY    34  34 100 N6        29.81S WCI  29
WATERTOWN      CLOUDY    34  34 100 N5        29.79R FOG     WCI  30
MONROE         FOG       34  34 100 NW6       29.80R VSB 1/2 WCI  29
JANESVILLE     CLOUDY    36  36 100 NW5       29.79R FOG     WCI  32
$$

WIZ051-052-058>065-066-070>072-171300-
SOUTHEAST WISCONSIN

CITY           SKY/WX    TMP DP  RH WIND       PRES   REMARKS
MILWAUKEE      FOG       37  36  96 N7        29.77R VSB 1/2 WCI  32
6HR MIN TEMP:  37; 6HR MAX TEMP:  38; 6HR PCP:  0.11;

WAUKESHA       LGT RAIN  34  34 100 CALM      29.79R
MILWAUKEE/TIMM CLOUDY    34  32  93 N5        29.79R FOG     WCI  30
RACINE         CLOUDY    37  35  92 N7        29.78R FOG     WCI  32
6HR MIN TEMP:  36; 6HR MAX TEMP:  38; 6HR PCP:  0.28;

KENOSHA        FOG       36  35  96 NW9       29.76R VSB 3/4 WCI  29
6HR MIN TEMP:  36; 6HR MAX TEMP:  37; 6HR PCP:  0.39;

FOND DU LAC    MIX PCPN  34  31  88 N10       29.81R FOG     WCI  26
6HR MIN TEMP:  34; 6HR MAX TEMP:  35; 6HR PCP:  0.05;

SHEBOYGAN      LGT RAIN  35  34  96 NE10      29.79S VSB 1/2 WCI  27
6HR MIN TEMP:  34; 6HR MAX TEMP:  35; 6HR PCP:  0.11;

WEST BEND      DRIZZLE   34  34 100 NE6       29.78R WCI  29
JUNEAU         CLOUDY    33  32  99 N7        29.80S FOG     WCI  26
$$

LSZ147-162-171300-
LAKE SUPERIOR

STATION/POSITION TIME  TEMP    WIND        PRES    WAVE
                       AIR SEA DIR/SP/G            HT/PER
                 (UTC) (F)     (DEG/KT/KT) (MB)    (FT/S)
DEVILS ISLAND    1100   34      30/  8/  8 1015.8F
PORT WING        1140   21     140/  2/  3 1014.9F
SAXON HARBOR     1140   25     180/  3/  3 1014.2F
$$

LMZ867-665-643>646-171300-
LAKE MICHIGAN

STATION/POSITION TIME  TEMP    WIND        PRES    WAVE
                       AIR SEA DIR/SP/G            HT/PER
                 (UTC) (F)     (DEG/KT/KT) (MB)    (FT/S)
NORTHPORT PIER   1140   35      50/ 13/ 18 1011.9F
SISTER BAY       1120   34      20/  7/ 13   N/A
KEWAUNEE LAKESHO 1130   35      40/ 10/ 13 1009.6F
SHEBOYGAN LAKESH 1100   35      10/ 11/ 12 1009.5F
PORT WASHINGTON  1140   36      20/  4/ 11 1009.5F
MILWAUKEE LAKESH 1130   37     360/  7/  8   N/A
KENOSHA   LAKESH 1100   37     360/ 11/ 12 1007.5
$$

TC  - TEMPERATURE IN CELSIUS
VSB - VISIBILITY IN STATUTE MILES
WCI - WIND CHILL INDEX
HX  - HEAT INDEX





USA.gov is the U.S. government's official web portal to all federal, state and local government web resources and services.